Location: Roland
(31.1349°N, 85.4372°W)
Time: 22:07:51
(UTC+00:00)

Tiros 1 - Pass Details

Date: 26 April 2021
Orbit: 630 x 664 km, 48.4° (Epoch: 05 May)

Event Time Altitude Azimuth Distance (km) Brightness Sun altitude
Rises 18:55:17 0° 312° (NW) 2,918 10.6 65.4°
Reaches altitude 10° 18:57:37 10° 314° (NW) 2,006 9.9 65.0°
Maximum altitude 19:02:13 76° 39° (NE) 650 8.2 64.3°
Drops below altitude 10° 19:06:49 10° 126° (SE) 1,998 9.7 63.5°
Sets 19:09:08 0° 128° (SE) 2,905 10.4 63.1°
